Terminal Aerodrome Forecast
Issued by NWS

Home | Current Version | Previous Version | Text Only | Print | Product List | Glossary On
Versions: 1 2 3 4 5 6 7 8 9 10 11 12 13 14 15 16 17 18
515
FTUS45 KABQ 231130
TAFLVS
TAF
KLVS 231130Z 2312/2412 15007KT 5SM BR OVC019
     FM231500 16006KT P6SM BKN030
     FM231700 19008KT P6SM SCT040
     FM232100 23010KT P6SM VCTS BKN050CB
      TEMPO 2321/2324 VRB15G23KT 5SM TSRA BKN040CB
     FM240000 16010KT P6SM VCSH SCT050 BKN090=

USA.gov is the U.S. government's official web portal to all federal, state and local government web resources and services.